This is the latest recevied weather packets stored in our database for station/object K2BIG. If no packets are shown the sender has not sent any weather packets the latest 10 day(s).
| Time | Temp. | Humidity | Pressure | Rain* | Wind** | Luminosity | Snow |
|---|---|---|---|---|---|---|---|
| 1777667115 | 19.44° C | 38% | 1009.5 hPa | 0 mm | - | - | - |
| 1777666816 | 19.44° C | 41% | 1009.5 hPa | 0 mm | - | - | - |
| 1777666515 | 18.89° C | 38% | 1009.6 hPa | 0 mm | - | - | - |
| 1777666215 | 18.89° C | 38% | 1009.6 hPa | 0 mm | - | - | - |
| 1777665916 | 18.89° C | 39% | 1009.7 hPa | 0 mm | - | - | - |
| 1777665615 | 18.33° C | 43% | 1009.7 hPa | 0 mm | - | - | - |
| 1777665316 | 18.89° C | 40% | 1009.7 hPa | 0 mm | - | - | - |
| 1777665015 | 18.89° C | 39% | 1009.7 hPa | 0 mm | - | - | - |
| 1777664715 | 19.44° C | 38% | 1009.8 hPa | 0 mm | - | - | - |
| 1777664416 | 19.44° C | 37% | 1009.8 hPa | 0 mm | - | - | - |
| 1777664116 | 19.44° C | 39% | 1009.9 hPa | 0 mm | - | - | - |
| 1777663816 | 19.44° C | 40% | 1009.9 hPa | 0 mm | - | - | - |
| 1777663516 | 18.89° C | 40% | 1009.8 hPa | 0 mm | - | - | - |
| 1777663215 | 18.89° C | 42% | 1010 hPa | 0 mm | - | - | - |
| 1777662916 | 19.44° C | 40% | 1010 hPa | 0 mm | - | - | - |
| 1777662615 | 19.44° C | 38% | 1010 hPa | 0 mm | - | - | - |
| 1777662316 | 19.44° C | 42% | 1010.2 hPa | 0 mm | - | - | - |
| 1777662016 | 19.44° C | 42% | 1010.2 hPa | 0 mm | - | - | - |
| 1777661715 | 19.44° C | 40% | 1010.2 hPa | 0 mm | - | - | - |
| 1777661415 | 18.89° C | 39% | 1010.5 hPa | 0 mm | - | - | - |
| 1777661115 | 18.89° C | 42% | 1010.6 hPa | 0 mm | - | - | - |
| 1777660815 | 18.89° C | 41% | 1010.6 hPa | 0 mm | - | - | - |
| 1777660515 | 18.89° C | 43% | 1010.6 hPa | 0 mm | - | - | - |
| 1777660215 | 18.89° C | 40% | 1010.8 hPa | 0 mm | - | - | - |
| 1777659915 | 18.89° C | 40% | 1010.7 hPa | 0 mm | - | - | - |
* Rain latest hour (hover to see other rain measurements)
** Current wind speed in m/s (hover to see current wind gust speed)